Location: Chippewa Lake
(41.0698°N, 81.9010°W)
Time: 01:13:16
(UTC+00:00)

Daily predictions for brighter satellites

Satellite Brightness Start Highest point End
(mag) Time Altitude Azimuth Time Altitude Azimuth Time Altitude Azimuth
Cosmos 2233 Rocket 4.2 01:11:04 10° S 01:17:23 87° W 01:23:44 10° N
Meteor 2-6 Rocket 4.2 01:12:35 10° S 01:17:58 88° E 01:23:29 10° N
Okean-O 3.0 01:14:13 10° S 01:18:37 69° WSW 01:23:02 10° NNW
CSL-04 Rocket 3.9 01:15:38 10° S 01:20:55 76° WSW 01:26:19 10° NNW
Aureole 1 Rocket 3.0 01:18:34 10° S 01:21:33 30° ESE 01:24:15 10° NE
Cosmos 2227 Rocket 2.3 01:20:31 10° NNW 01:26:12 67° ENE 01:31:49 10° SSE
Cosmos 1536 3.7 01:25:44 10° NNE 01:29:22 32° ENE 01:33:00 10° SE
Cosmos 1980 Rocket 2.7 01:27:14 10° S 01:32:22 38° ESE 01:37:33 10° NE
RESURS DK-1 3.9 01:30:33 10° SSE 01:33:20 18° ESE 01:36:07 10° ENE
ASTRO E2 4.4 01:31:36 10° SW 01:34:17 18° S 01:36:57 10° SE
SL-4 R/B 2.5 01:29:41 10° NW 01:34:18 64° NNE 01:38:30 10° ESE
ARGOS Delta rocket 4.4 01:31:53 10° NNE 01:37:13 49° E 01:42:24 10° S
Cosmos 1184 Rocket 3.5 01:35:47 10° SSE 01:38:26 29° E 01:41:06 10° NNE
H-2A R/B 1.9 01:35:23 10° NNE 01:39:30 83° ESE 01:43:37 10° SSW
Cosmos 2369 3.8 01:37:01 10° S 01:42:29 54° ESE 01:47:59 10° NNE
Cosmos 1328 Rocket 3.8 01:39:33 10° SSW 01:43:51 73° W 01:48:11 10° N
Cosmos 1486 Rocket 4.0 01:38:42 10° SSW 01:43:59 82° ESE 01:49:18 10° NNE
IRS-1A Rocket 4.5 01:39:02 10° SSE 01:44:34 61° ENE 01:50:16 10° N
Cosmos 1464 Rocket 4.1 01:40:24 10° SSE 01:46:25 55° E 01:52:24 10° NNE
MetOp-A 4.5 01:45:28 10° S 01:49:19 43° W 01:53:02 10° NNW
Cosmos 1697 Rocket 3.0 01:45:20 10° SSW 01:50:59 75° WNW 01:56:41 10° NNE
Cosmos 405 3.0 01:49:38 10° NNW 01:53:03 77° W 01:56:27 10° S
Meteor 2-19 Rocket 4.5 01:47:03 10° N 01:53:15 89° WSW 01:59:24 10° S
Cosmos 389 Rocket 2.8 01:50:54 10° N 01:54:19 47° ENE 01:56:49 16° SSE
MOS 1 4.3 01:48:54 10° SSE 01:54:32 82° ENE 02:00:14 10° NNW
CZ-4B R/B 1.2 01:53:21 10° NNE 01:56:33 90° NW 01:59:40 10° SSW
MetOp-B 4.4 01:56:39 14° SE 02:01:07 53° ENE 02:06:19 10° N
Cosmos 1515 3.7 01:58:19 10° S 02:02:05 81° W 02:05:52 10° N
ATLAS 2AS CENTAUR R/B 3.1 01:54:36 10° SSW 02:02:11 57° ESE 02:09:37 10° NE
Cosmos 2297 Rocket 3.3 01:57:34 10° NW 02:02:49 41° WSW 02:08:03 10° S
Nadezhda 4 Rocket 4.3 01:57:04 10° N 02:03:06 50° ENE 02:07:53 16° SSE
EXPRESS MD2 3.6 02:02:40 10° WNW 02:08:43 72° NNE 02:10:54 21° ESE
Helios 1A Rocket 4.0 02:07:25 18° ESE 02:09:27 28° ENE 02:12:55 10° N
Cosmos 1933 Rocket 3.5 02:06:46 10° N 02:11:14 74° E 02:14:37 17° SSE
Cosmos 1340 2.9 02:08:00 10° SSW 02:11:42 68° W 02:15:27 10° N
Cosmos 1503 Rocket 4.0 02:08:04 10° SSW 02:13:19 87° ESE 02:18:41 10° NNE
ERS-1 Rocket 4.1 02:12:29 18° ESE 02:15:17 29° ENE 02:19:36 10° N
SJ 16-02 1.3 02:16:08 10° S 02:20:27 66° ESE 02:24:48 10° NNE
SL-16 R/B 3.3 02:18:47 21° SE 02:20:36 24° ESE 02:25:03 10° NE
SPOT 1/Viking Rocket 3.8 02:22:07 14° S 02:26:36 68° WSW 02:31:45 10° NNW
Cosmos 1743 3.2 02:23:41 10° NNW 02:27:23 54° W 02:30:10 16° SSW
Timation 2 Rocket 4.1 02:20:49 10° NNW 02:27:28 78° ENE 02:32:04 22° SSE
NOSS 2-1 (E) 4.4 02:29:30 20° E 02:29:30 20° E 02:30:58 10° ENE
ATLAS 3B R/B 4.0 02:22:43 10° NNW 02:29:16 33° NE 02:35:07 13° E
BREEZE M DEB (TANK) 4.0 02:28:49 10° NW 02:32:52 67° NNE 02:47:28 11° ESE
Cosmos 1346 Rocket 3.8 02:36:32 28° ESE 02:37:00 29° E 02:40:30 10° NNE
Meteor 1-18 Rocket 4.3 02:34:06 21° SSE 02:37:50 57° E 02:43:21 10° NNE
OAO 3 Rocket 4.2 02:36:02 10° WSW 02:40:21 31° SSW 02:41:32 27° S
Cosmos 2278 3.6 02:35:24 10° SSW 02:41:03 86° ESE 02:46:46 10° NNE
Meteor 2-21 4.4 02:36:51 10° N 02:42:59 83° E 02:46:53 24° S
Resurs 01 Rocket 3.1 02:39:24 10° SSW 02:43:17 32° W 02:47:15 10° NNW
Ariane Rocket 3.8 02:40:49 15° S 02:44:48 48° W 02:49:44 10° NNW
Cosmos 2360 Rocket 3.8 02:45:49 17° E 02:45:49 17° E 02:49:03 10° ENE
SPOT 5 3.1 02:43:22 29° SSE 02:46:00 65° ENE 02:51:07 10° N
Terra 2.4 02:44:35 30° ESE 02:46:21 42° ENE 02:50:50 10° N
Cosmos 2292 Rocket 3.1 02:45:01 10° N 02:47:45 42° ENE 02:47:45 42° ENE
Cosmos 2082 4.1 02:43:41 10° NNW 02:49:12 57° WSW 02:52:31 24° S
Cosmos 2034 Rocket 4.3 02:43:20 10° SSW 02:49:35 69° W 02:55:56 10° N
Cosmos 921 Rocket 3.6 02:46:07 10° NNW 02:50:33 55° WSW 02:52:48 26° S
Cosmos 2263 Rocket 2.1 02:46:08 10° NNW 02:51:44 74° ENE 02:54:16 33° SE
ISS -2.6 02:48:54 10° NW 02:52:02 36° NNE 02:53:04 28° ENE
Cosmos 1378 2.9 02:52:06 48° SSE 02:53:00 75° E 02:56:39 10° N
CARTOSAT-1 4.2 02:54:34 25° SSW 02:56:49 50° W 03:01:02 10° NNW
Meteor 2-21 Rocket 4.4 02:50:48 10° N 02:56:55 80° E 03:00:06 30° SSE
Cosmos 1869 Rocket 3.8 02:56:51 10° NNW 03:01:18 67° W 03:03:11 33° SSW
Cosmos 2228 Rocket 3.4 02:58:45 22° SSW 03:01:39 66° W 03:06:12 10° N
Cosmos 2344 4.4 03:00:28 10° WSW 03:07:42 49° NW 03:15:06 10° NNE
NOSS 2-1 (C) 2.8 03:07:58 56° SW 03:08:34 79° NW 03:11:46 10° NNE
Meteor 2-16 Rocket 4.4 03:02:31 10° N 03:08:43 83° E 03:11:31 35° SSE
Cosmos 2279 Rocket 4.2 03:07:07 35° SE 03:09:20 51° E 03:15:19 10° NNE
Cosmos 2227 Rocket 4.4 03:06:08 10° WNW 03:09:36 17° W 03:13:04 10° SW
RESURS DK-1 3.8 03:07:10 10° SW 03:11:00 37° WNW 03:14:52 10° N
Cosmos 482 Debris 4.3 03:07:49 10° NW 03:11:01 69° NE 03:11:58 49° E
SL-4 R/B 3.6 03:09:58 10° WNW 03:13:28 23° SW 03:13:57 22° SW
Cosmos 1980 Rocket 3.9 03:11:25 10° WSW 03:16:23 32° WNW 03:21:26 10° N
SL-24 R/B - RUBIN 2 3.7 03:12:45 10° NNW 03:17:08 67° NE 03:18:06 51° ESE
Spot 2 Rocket 3.8 03:16:25 34° SSW 03:18:26 60° WSW 03:23:26 10° NNW
NOSS 2-1 (D) 3.3 03:18:12 41° WSW 03:19:02 58° NW 03:22:11 10° NNE
ATLAS CENTAUR R/B 4.0 03:20:08 10° N 03:23:10 16° NE 03:25:48 11° ENE
Cosmos 1707 Rocket 3.7 03:22:35 43° SSW 03:23:57 71° W 03:28:22 10° N
ARIANE 5 R/B 2.5 03:23:46 60° SSE 03:24:34 85° ENE 03:29:05 10° NNW
Cosmos 2322 Rocket 2.2 03:23:14 45° SSE 03:24:41 60° ESE 03:30:13 10° NNE
USA 215 3.6 03:19:07 10° ENE 03:25:09 38° SE 03:25:34 38° SE
BREEZE-M DEB (TANK) 2.9 03:22:55 10° NW 03:25:20 45° NNE 03:26:21 35° ENE
Cosmos 1733 4.3 03:22:56 10° NNE 03:25:54 31° ENE 03:25:54 31° ENE
Cosmos 2333 Rocket 3.6 03:31:12 22° E 03:31:12 22° E 03:34:43 10° NE
Cosmos 1844 Rocket 3.8 03:26:06 10° N 03:31:08 33° ENE 03:32:53 27° E
Meteor 2-4 Rocket 4.1 03:28:29 24° SSW 03:31:56 62° WNW 03:37:33 10° N
Cosmos 1975 3.5 03:31:49 10° NNW 03:35:42 45° W 03:36:17 42° WSW
Cosmos 44 Rocket 3.1 03:31:01 10° NW 03:35:43 72° WSW 03:36:16 64° SSW
Meteor 1-4 Rocket 3.5 03:32:57 10° N 03:35:33 37° NE 03:35:33 37° NE
Cosmos 2180 Rocket 4.5 03:35:27 47° SSE 03:37:05 64° E 03:43:10 10° NNE
CSL-04 DEB 4.3 03:34:11 10° NNE 03:38:11 81° WNW 03:38:25 76° SW
Cosmos 2219 Rocket 3.6 03:49:49 23° E 03:49:49 23° E 03:53:13 10° NE
SAR-Lupe-4 4.1 03:47:19 10° N 03:50:31 56° NW 03:50:31 56° NW
ATLAS 2AS CENTAUR R/B 4.3 03:46:18 10° WSW 03:53:28 39° NW 04:00:27 10° NNE
ERS-1 Rocket 4.2 03:52:27 27° SW 03:53:58 32° W 03:58:29 10° NNW
Cosmos 1844 4.4 03:50:06 10° NNW 03:55:40 45° ENE 03:57:04 38° E
Cosmos 1733 Rocket 3.5 03:51:21 10° NNW 03:55:41 51° W 03:56:04 49° WSW
SJ 16-02 4.3 03:57:38 10° W 03:59:28 12° WNW 04:01:19 10° NNW
Cosmos 1726 3.6 03:59:53 10° N 04:02:17 31° NE 04:02:17 31° NE
SL-16 R/B 3.0 04:00:33 19° SW 04:04:21 47° WNW 04:09:50 10° NNE
Cosmos 2237 4.4 04:04:12 38° SW 04:06:23 68° WNW 04:12:07 10° NNE
Cosmos 1908 Rocket 3.7 04:03:18 10° N 04:07:12 65° NE 04:07:12 65° NE
Geosat 3.8 04:09:12 75° SSW 04:09:31 80° WSW 04:14:34 10° NNW
Cosmos 1441 Rocket 4.4 04:10:50 35° WNW 04:10:50 35° WNW 04:14:07 10° N
Meteor 2-10 3.8 04:06:20 10° N 04:11:35 85° E 04:11:51 80° SE
Cosmos 2242 Rocket 4.1 04:13:47 53° ENE 04:13:47 53° ENE 04:17:39 10° NNE
ALOS 2 4.0 04:14:10 29° ENE 04:14:10 29° ENE 04:17:49 10° N
Cosmos 1655 Rocket 3.9 04:11:39 10° N 04:17:55 81° E 04:18:59 63° SSE
ATLAS 3B R/B 3.0 04:13:08 10° NW 04:20:30 66° WSW 04:22:21 51° S
COSMOS 2428 3.7 04:23:47 31° E 04:23:47 31° E 04:27:59 10° NE
Cosmos 1937 Rocket 3.3 04:23:08 84° SE 04:23:13 85° ESE 04:28:31 10° NNE
Cosmos 923 Rocket 3.9 04:17:54 10° NNW 04:23:15 76° WSW 04:23:29 74° SW
CZ-4C R/B 4.0 04:17:18 10° NNW 04:23:58 38° NE 04:29:38 17° ESE
Terra 3.7 04:23:27 19° WSW 04:24:16 20° W 04:27:44 10° NW
Meteor 1-15 Rocket 4.1 04:21:41 10° N 04:27:23 85° E 04:27:54 74° SSE
ISS -0.7 04:25:49 10° WNW 04:25:58 11° WNW 04:25:58 11° WNW
Cosmos 2360 Rocket 2.4 04:27:32 49° WSW 04:28:54 65° WNW 04:34:31 10° NNE
Cosmos 1867 4.3 04:35:35 39° E 04:35:35 39° E 04:39:39 10° NE
Cosmos 2263 Rocket 4.2 04:32:04 10° WNW 04:34:55 14° W 04:35:57 14° WSW
Cosmos 2333 4.0 04:34:43 81° SSE 04:34:58 85° ESE 04:40:37 10° NNE
Spot 4 3.9 04:43:39 76° NW 04:43:39 76° NW 04:48:07 10° NNW
Cosmos 2112 Rocket 3.9 04:38:30 10° NNW 04:43:44 78° W 04:43:44 78° W
Okean 1-7 4.0 04:44:37 41° WNW 04:44:37 41° WNW 04:48:32 10° N
Cosmos 1680 Rocket 3.6 04:39:31 10° NNW 04:44:38 65° W 04:44:38 65° W
Cosmos 2266 Rocket 4.2 04:42:39 10° NNW 04:48:43 57° W 04:49:37 52° SW
Okean 3 4.4 04:50:52 43° NW 04:50:52 43° NW 04:54:21 10° N
Cosmos 2278 Rocket 4.1 04:47:15 10° N 04:51:40 22° NE 04:54:16 17° E
Iridium 4 Rocket 3.9 04:48:25 10° NNW 04:52:48 48° W 04:52:48 48° W
Cosmos 1818 3.5 04:49:20 10° NW 04:54:36 79° W 04:54:36 79° W
Meteor 2-17 Rocket 4.3 04:51:03 10° N 04:57:15 81° E 04:57:51 72° SE
H-2A R/B 4.3 04:54:48 10° N 04:57:59 48° NNW 04:57:59 48° NNW
Cosmos 1461 4.1 04:55:18 10° NNW 04:58:53 37° NE 04:58:53 37° NE
Meteor 1-22 Rocket 4.3 04:53:36 10° NNW 04:59:35 77° W 05:00:04 72° SW
ATLAS CENTAUR R/B 2.1 04:57:48 10° NNW 05:01:48 60° NW 05:01:48 60° NW
USA 215 3.6 05:01:53 10° NE 05:08:20 63° NW 05:12:52 21° WSW
Cosmos 2322 Rocket 4.3 05:04:58 10° W 05:09:08 21° NW 05:13:23 10° N
Cosmos 2322 3.7 05:13:04 66° W 05:13:35 70° WNW 05:19:19 10° NNE
ADEOS Rocket 2.7 05:13:15 76° ESE 05:13:37 80° ENE 05:19:35 10° NNW
Cosmos 2333 Rocket 2.8 05:13:10 44° W 05:14:15 50° WNW 05:19:47 10° NNE
Cosmos 1844 Rocket 3.6 05:09:59 10° NW 05:14:32 34° W 05:14:32 34° W
ASTEX 1 3.9 05:12:15 10° NNE 05:16:31 51° ENE 05:16:31 51° ENE
Cosmos 1707 4.2 05:20:46 36° NNW 05:20:46 36° NNW 05:23:15 10° N
Cosmos 2221 Rocket 4.3 05:20:54 51° NNE 05:20:54 51° NNE 05:24:17 10° NNE
ERS-2 4.0 05:22:18 10° N 05:24:27 28° NNW 05:24:27 28° NNW
Cosmos 1378 Rocket 4.4 05:28:59 45° NE 05:28:59 45° NE 05:32:21 10° NNE
SL-08 ROCKET BODY 4.3 05:23:27 10° NNW 05:29:16 65° W 05:29:27 64° WSW
Okean 2 4.4 05:30:47 43° N 05:30:47 43° N 05:33:39 10° N
Cosmos 2219 Rocket 2.8 05:31:30 42° W 05:32:25 46° WNW 05:37:49 10° NNE
Cosmos 2150 Rocket 4.4 05:33:55 52° ENE 05:33:55 52° ENE 05:38:23 10° NNE
Cosmos 494 Rocket 4.2 05:31:43 10° NNW 05:36:48 62° ENE 05:36:48 62° ENE
Cosmos 1048 Rocket 4.0 05:32:59 10° NNW 05:38:01 70° ENE 05:38:01 70° ENE
S3M 4.0 05:38:12 61° SE 05:38:56 66° E 05:45:15 10° NNE
USA 267 3.3 05:38:54 34° ESE 05:41:57 75° NE 05:48:30 10° NW
Cosmos 1553 Rocket 3.9 05:42:09 68° WSW 05:42:44 73° W 05:48:56 10° N
Cosmos 1125 Rocket 3.6 05:44:18 69° ENE 05:44:18 69° ENE 05:49:05 10° NNE
CZ-2D R/B 4.3 05:41:33 10° ENE 05:44:02 13° E 05:44:50 13° E
Meteor 1-16 Rocket 4.3 05:38:47 10° N 05:44:43 71° E 05:45:16 66° ESE
Cosmos 405 Rocket 4.2 05:48:24 35° N 05:48:24 35° N 05:50:42 10° N
USA 305 4.0 05:49:28 40° NE 05:49:28 40° NE 05:52:16 10° NE
USA 229 DEB 4.1 05:41:39 10° NNW 05:49:05 72° NE 05:52:46 35° SE
USA 229 4.1 05:41:45 10° NNW 05:49:11 71° NE 05:52:54 34° SE
ALOS 2 4.4 05:51:33 22° WNW 05:51:33 22° WNW 05:53:56 10° NW
Cosmos 1626 3.9 05:55:00 28° NNW 05:55:00 28° NNW 05:57:04 10° N
Cosmos 2151 Rocket 4.4 05:50:06 10° NNW 05:53:24 46° NW 05:53:24 46° NW
PSLV R/B 4.2 05:50:58 10° N 05:54:43 55° NW 05:54:43 55° NW
Cosmos 1437 Rocket 4.1 05:52:28 10° N 05:54:47 36° N 05:54:47 36° N
NOSS 2-2 (E) 4.5 05:51:39 10° NNW 05:57:08 83° NE 05:58:58 52° SE
NOSS 0 Rocket 3.8 05:56:55 71° SW 05:57:39 84° WNW 06:03:56 10° NNE
Okean 2 Rocket 4.1 05:54:05 10° NNW 05:57:28 41° NW 05:57:28 41° NW
Lacrosse 5 rocket 3.9 06:01:10 11° E 06:01:10 11° E 06:01:29 10° ENE
Cosmos 2237 Rocket 2.1 06:02:09 79° SE 06:02:19 80° ESE 06:08:02 10° NNE
Cosmos 332 Rocket 4.3 06:04:18 49° E 06:04:18 49° E 06:08:24 10° NNE
COSMOS 2428 3.8 06:05:45 32° W 06:07:07 36° WNW 06:12:21 10° N
Cosmos 1953 3.3 06:04:20 10° N 06:07:09 44° N 06:07:09 44° N
Resurs 1-4 Rocket 3.6 06:05:17 10° NE 06:09:29 24° E 06:10:14 23° ESE
GP-B 3.8 06:07:48 10° NNE 06:11:45 46° ENE 06:11:45 46° ENE
CZ-4C R/B 3.1 06:05:31 10° NW 06:12:59 62° WSW 06:14:45 52° SSW
NOSS 3-1 (A) 4.1 06:08:05 10° NW 06:15:48 70° WSW 06:18:26 48° S
Cosmos 2298 Rocket 4.3 06:16:30 55° W 06:16:47 56° WNW 06:22:01 10° NNE
Cosmos 1943 Rocket 3.8 06:14:05 10° N 06:19:03 30° NE 06:23:41 11° ESE
Meteor 2-12 Rocket 4.2 06:14:02 10° N 06:20:07 87° W 06:20:58 68° S
ADEOS II 4.2 06:19:34 10° NE 06:22:46 16° E 06:24:27 14° ESE
Cosmos 1745 Rocket 4.0 06:16:55 10° NNW 06:23:00 59° W 06:23:37 56° WSW
Thor Agena Rocket 3.7 06:20:23 10° NNE 06:25:39 64° ESE 06:26:03 61° SE
USA 306 4.0 06:29:56 36° NW 06:30:16 37° NNW 06:34:11 10° NE
NOSS 2-2 (D) 4.4 06:27:42 10° NW 06:33:10 71° WSW 06:34:33 56° S
Okean 1 Rocket 4.0 06:29:41 10° NNW 06:33:02 40° WNW 06:33:02 40° WNW
USA 307 3.9 06:34:07 39° NW 06:34:25 39° NNW 06:38:22 10° NE
Cosmos 2278 Rocket 2.3 06:30:34 10° NNW 06:36:05 58° WSW 06:36:05 58° WSW
Cosmos 371 Rocket 4.3 06:41:23 34° WNW 06:41:46 34° WNW 06:46:12 10° N
Lacrosse 5 1.7 06:43:42 80° S 06:43:53 83° SE 06:49:00 10° NE
Cosmos 2084 Rocket 3.8 06:45:29 53° N 06:45:29 53° N 06:48:32 10° NNE
USA 32 4.2 06:44:30 54° W 06:44:47 55° W 06:49:57 10° N
NPP 4.5 06:39:43 10° NNE 06:44:47 41° E 06:46:05 35° SE
ATLAS 5 CENTAUR R/B 3.0 06:37:58 10° NW 06:45:39 45° W 06:45:39 45° W
Cosmos 304 Rocket 4.3 06:49:36 45° WNW 06:49:52 45° WNW 06:54:31 10° N
SL-16 R/B 2.3 06:49:47 55° SSE 06:50:45 65° ESE 06:56:23 10° NNE
Cosmos 1455 3.6 06:49:07 10° NNE 06:52:24 30° ENE 06:52:49 29° E
SME Rocket 2.9 06:58:11 86° SW 06:58:14 87° W 07:03:05 10° NNW
Cosmos 1269 Rocket 4.0 06:54:56 10° NNW 07:00:14 80° ENE 07:01:45 48° SSE
Meteor 2-10 Rocket 3.7 06:55:16 10° NNW 07:00:46 57° W 07:01:19 54° WSW
Cosmos 1300 4.4 07:01:18 10° NNW 07:03:16 23° NW 07:03:16 23° NW
SL-16 R/B 2.9 07:01:09 23° SE 07:05:02 62° ENE 07:11:11 10° N
MOZ.5/SAFIR/RUBIN 5/SL-8 4.0 07:09:27 52° W 07:09:27 52° W 07:14:03 10° NNW
Cosmos 2074 Rocket 4.1 07:03:41 10° N 07:10:00 73° E 07:13:08 32° SSE
Cosmos 1455 Rocket 3.3 07:06:39 10° NNW 07:10:48 53° W 07:10:48 53° W
SAR-Lupe-2 4.2 07:11:52 10° NNE 07:15:21 47° E 07:15:21 47° E
Meteor 1-24 Rocket 3.6 07:14:10 51° SW 07:15:30 71° W 07:20:59 10° N
Cosmos 1536 Rocket 3.9 07:16:40 46° SE 07:17:35 57° E 07:21:54 10° NNE
COSMOS 2455 2.9 07:18:09 43° S 07:20:07 67° ESE 07:26:06 10° NE
Cosmos 292 Rocket 4.1 07:20:54 45° SSE 07:22:05 58° ESE 07:26:48 10° NNE
CZ-2D R/B 2.1 07:19:17 10° N 07:24:39 75° WNW 07:26:09 47° SW
USA 267 4.1 07:26:11 29° WSW 07:26:11 29° WSW 07:30:56 10° WNW
Cosmos 1975 Rocket 4.1 07:25:12 31° W 07:25:22 31° WNW 07:29:21 10° NNW
Cosmos 2184 Rocket 3.9 07:20:04 10° N 07:26:21 88° W 07:29:21 33° S
CRYOSAT 2 4.5 07:25:17 37° SSE 07:27:10 72° E 07:32:03 10° N
Cosmos 1025 Rocket 3.9 07:27:37 35° W 07:27:45 35° WNW 07:31:43 10° N
MSX 4.5 07:31:16 10° NNE 07:36:53 50° E 07:40:21 23° SSE
Lacrosse 5 rocket 1.8 07:36:40 41° WNW 07:37:25 48° NW 07:41:20 10° NE
YAOGAN 11 4.0 07:40:01 41° S 07:41:33 83° WSW 07:46:05 10° NNW
OAO 2 Rocket 4.5 07:42:53 25° SSE 07:42:53 25° SSE 07:46:49 10° ESE
Cosmos 1943 3.9 07:41:37 24° SSE 07:44:39 46° ESE 07:50:04 10° NE
Cosmos 1703 3.3 07:45:42 47° S 07:46:46 76° E 07:50:41 10° N
Cosmos 2237 Rocket 4.2 07:43:57 12° W 07:47:04 17° NW 07:50:47 10° N
Resurs 1-4 Rocket 2.7 07:44:29 10° N 07:49:26 43° WNW 07:51:19 31° WSW
UNK 3.7 07:48:51 40° SSW 07:50:17 62° W 07:54:52 10° NNW
EO 1 Del DPAF 2.9 07:48:22 10° NNE 07:51:54 86° ESE 07:52:35 56° S
Helios 1A 3.0 07:51:32 27° SSE 07:53:50 83° ENE 07:58:04 10° NNW
NOSS 3-3 (A) 4.0 07:52:29 31° SSW 07:55:13 65° ESE 08:01:25 10° NE
NOSS 3-3 (C) 4.0 07:52:35 30° S 07:55:19 64° ESE 08:01:30 10° NE
Nadezhda 1 Rocket 4.0 07:53:45 30° SSW 07:57:03 68° W 08:03:20 10° N
Cosmos 1544 Rocket 4.4 07:53:31 10° NNW 07:57:26 32° W 07:57:54 31° WSW
Lacrosse 4 Rocket 4.1 07:57:43 10° ESE 07:59:00 11° ESE 08:00:18 10° E
Cosmos 614 Rocket 3.9 07:55:55 10° NNW 08:01:05 66° WSW 08:04:35 21° S
IDEFIX/ARIANE 42P 2.5 07:56:15 10° N 08:01:32 77° WNW 08:04:17 29° SSW
ADEOS II 2.2 07:57:39 10° N 08:02:50 62° WNW 08:05:22 30° SW
Cosmos 1943 Rocket 2.6 07:57:36 10° NW 08:02:54 41° WSW 08:05:08 28° SSW
BREEZE-M DEB (TANK) 4.3 08:02:27 19° SSE 08:03:37 23° ESE 08:08:15 10° ENE
Meteor 1-28 Rocket 3.2 08:06:02 40° SSW 08:07:05 57° W 08:10:46 10° NNW
Cosmos 2297 4.0 08:04:56 10° NW 08:10:24 46° WSW 08:13:59 21° S
ALOS 4.3 08:07:40 10° NE 08:11:26 24° E 08:15:10 10° SSE
MOS 1 Rocket 3.6 08:10:22 32° SW 08:11:32 39° W 08:15:34 10° NNW
IRS-1D 3.6 08:07:18 10° NNE 08:12:40 80° ESE 08:16:22 20° S
Cosmos 2251 Rocket 3.4 08:09:24 10° NNW 08:14:41 84° WSW 08:19:58 10° SSE
Cosmos 1892 Rocket 4.1 08:13:50 15° S 08:17:20 58° E 08:21:44 10° NNE
Cosmos 1726 Rocket 3.8 08:17:34 10° N 08:21:59 68° E 08:26:19 10° SSE
Cosmos 2366 rocket 4.4 08:20:49 10° N 08:26:56 64° E 08:33:05 10° SSE
Lacrosse 5 3.7 08:23:13 10° W 08:27:23 24° NNW 08:31:34 10° NNE
Cosmos 1455 4.0 08:25:23 10° NW 08:27:34 15° W 08:27:34 15° W
CZ-2C R/B 3.8 08:24:57 10° NNE 08:29:39 37° E 08:34:13 10° SSE
Cosmos 2341 Rocket 4.0 08:24:52 10° N 08:31:18 82° W 08:37:40 10° S
Cosmos 2369 Rocket 2.2 08:27:43 10° NNW 08:33:13 62° WSW 08:38:42 10° S
SL-8 Rocket 4.1 08:27:06 10° N 08:33:27 86° E 08:39:46 10° S
Cosmos 1656 Rocket 3.5 08:29:31 10° NNW 08:34:56 75° WSW 08:40:20 10° SSE
SL-16 R/B 3.9 08:31:39 11° W 08:35:23 20° NW 08:39:32 10° N
Cosmos 1271 Rocket 4.0 08:33:55 10° NW 08:37:01 23° W 08:38:06 21° WSW
Meteor 1-21 Rocket 4.5 08:35:29 18° SSW 08:39:28 51° WNW 08:44:54 10° N
Cosmos 2228 3.8 08:39:26 10° NNW 08:43:20 32° W 08:45:54 18° SW
BREEZE-M DEB (TANK) 2.7 08:42:55 15° WSW 08:46:45 68° NNW 08:49:09 10° NE
SL-16 R/B 3.8 08:46:14 16° SW 08:49:02 21° W 08:53:35 10° NW
Cosmos 1420 Rocket 4.3 08:44:12 10° S 08:49:19 67° ESE 08:54:28 10° NNE
SL-24 DEB 4.2 08:52:09 10° S 08:56:53 74° W 09:01:36 10° N
Cosmos 407 Rocket 3.5 08:52:13 10° NNW 08:57:28 62° WSW 09:02:36 10° S
Cosmos 1603 4.1 08:53:54 14° SW 08:58:30 50° WNW 09:04:02 10° NNE
Cosmos 1371 Rocket 4.0 08:55:16 12° SSW 09:00:02 71° WNW 09:05:14 10° NNE
Cosmos 2058 Rocket 3.0 08:55:54 10° N 09:00:18 79° W 09:04:38 10° S
Cosmos 1626 Rocket 4.2 08:57:13 10° S 09:01:31 57° E 09:05:49 10° NNE
Genesis I 3.2 08:57:33 10° NW 09:01:36 71° WSW 09:05:31 10° SSE
CZ-2D R/B 4.3 09:02:56 10° NW 09:03:42 10° NW 09:04:27 10° WNW
MOS 1-B Rocket 3.8 08:59:00 10° S 09:04:33 64° WSW 09:10:15 10° NNW
Cosmos 1140 Rocket 3.7 08:59:47 10° NNW 09:04:51 50° WSW 09:09:51 10° S
SeaSat 1 3.5 09:01:32 10° NE 09:06:14 42° ESE 09:10:53 10° S
COSMOS 2455 4.4 09:01:49 10° W 09:06:34 24° NW 09:11:21 10° N
GPS 2-04 Rocket1 3.4 09:05:26 14° SW 09:07:55 30° S 09:11:04 10° ESE
Helios 1B rocket 3.0 09:09:19 10° N 09:13:10 42° WNW 09:17:00 10° SW
Intercosmos 25 Rocket 4.4 09:12:42 10° N 09:16:13 54° E 09:21:17 10° SSE
Nadezhda 3 Rocket 4.4 09:10:38 10° S 09:16:53 71° E 09:23:07 10° NNE
Lacrosse 5 rocket 3.8 09:15:27 10° NW 09:17:23 13° NNW 09:19:22 10° N
Cosmos 1633 4.4 09:14:24 10° SSE 09:17:33 31° E 09:20:44 10° NNE
Cosmos 2218 Rocket 4.3 09:11:46 10° NNW 09:17:47 51° W 09:23:50 10° SSW
METEOR-M 4.4 09:15:27 10° NNE 09:20:49 72° ESE 09:26:09 10° S
Cosmos 1954 Rocket 4.1 09:16:23 10° NNW 09:21:45 87° WSW 09:27:03 10° SSE
Cosmos 1825 2.1 09:18:13 10° S 09:21:56 90° NNW 09:25:40 10° N
CZ-2D R/B 3.6 09:18:20 10° NNE 09:22:21 72° ESE 09:26:16 10° S
CZ-3 R/B 4.2 08:42:21 10° WSW 09:26:11 55° SSW 09:37:02 10° ESE
OAO 2 Rocket 3.9 09:22:19 10° WSW 09:26:57 41° S 09:31:34 10° ESE
Cosmos 1758 Rocket 4.4 09:24:12 10° S 09:28:28 53° E 09:32:42 10° NNE
Cosmos 1943 4.5 09:24:06 10° WSW 09:28:53 27° NW 09:33:41 10° N
